www.pogodaiklimat.ru

Погода и климат >> Архив погоды >> Россия >> Чукотка >> Майская


ПОГОДА в Майской

  • Прогноз погоды в Майской
  • Монитор погоды в Майской

АРХИВ ПОГОДЫ в Майской

Время (UTC), дата Ветер
(напр.,м/с)
 
Видим.   Явления Облачность Т
(С)
Тd
(С)
f
(%)
Тe
(С)
Тes
(С)
Комфортность P
(гПа)
Po
(гПа)
Тmin
(С)
Tmax
(С)
R
(мм)
R24
(мм)
S
(см)
06 12.02 штиль 0 н/о н/о -34.3 -38.9 63 -34 -34 опасность
обморожения
1011.5 962.1
09 12.02 штиль 0 н/о н/о -33.9 -38.3 64 -34 -34 опасность
обморожения
1012.8 963.4
12 12.02 штиль 0 н/о н/о -33.7 -38.1 64 -34 -34 опасность
обморожения
1014.3 964.9
15 12.02 штиль 0 н/о н/о -36.3 -41.0 62 -36 -36 опасность
обморожения
1016.2 966.2
18 12.02 СВ 1 н/о н/о -37.6 -42.6 59 -43 -43 опасность
обморожения
1017.6 967.3
21 12.02 штиль 0 н/о н/о -36.6 -41.4 61 -37 -37 опасность
обморожения
1018.4 968.2
00 13.02 штиль 0 н/о н/о -35.5 -40.1 63 -36 -36 опасность
обморожения
1019.6 969.6
03 13.02 штиль 0 н/о н/о -34.5 -38.9 64 -35 -35 опасность
обморожения
1020.2 970.4
06 13.02 штиль 0 н/о н/о -34.8 -39.3 63 -35 -35 опасность
обморожения
1022.0 972.0
09 13.02 штиль 0 н/о н/о -34.6 -39.2 63 -35 -35 опасность
обморожения
1024.1 974.0
12 13.02 штиль 0 н/о н/о -33.6 -38.0 64 -34 -34 опасность
обморожения
1025.9 976.0
15 13.02 штиль 0 н/о н/о -32.8 -37.0 66 -33 -33 опасность
обморожения
1026.9 977.1
18 13.02 штиль 0 н/о н/о -31.9 -36.2 66 -32 -32 опасность
обморожения
1027.4 977.7
21 13.02 В 3 н/о н/о -30.7 -34.7 68 -40 -40 опасность
обморожения
1026.6 977.2
00 14.02 ЮВ 8
{10}
н/о н/о -32.6 -36.7 67 -49 -49 опасность
обморожения
1026.1 976.4
03 14.02 ЮВ 11-12
{12}
н/о н/о -32.3 -36.6 65 -51 -51 опасность
обморожения
1024.1 974.5
06 14.02 ЮВ 14-15
{15}
н/о н/о -31.5 -35.6 67 -51 -51 опасность
обморожения
1021.3 972.0
09 14.02 ЮВ 12-13
{15}
н/о н/о -29.6 -33.5 69 -48 -48 опасность
обморожения
1019.2 970.4
15 14.02 В 10-11
{13}
н/о н/о -27.5 -31.3 70 -44 -44 опасность
обморожения
1013.8 965.6
18 14.02 В 9-10
{11}
н/о н/о -26.9 -30.8 69 -42 -42 опасность
обморожения
1011.6 963.6
21 14.02 В 9-11
{11}
н/о н/о -26.3 -30.4 68 -41 -41 опасность
обморожения
1008.9 961.2
00 15.02 В 5
{11}
н/о н/о -25.4 -29.8 67 -37 -37 опасность
обморожения
1006.4 959.0
03 15.02 ЮЗ 2
{10}
н/о н/о -28.9 -32.8 69 -36 -36 опасность
обморожения
1004.7 956.7
06 15.02 штиль 0 н/о н/о -27.4 -30.9 72 -27 -27 1003.6 955.9
09 15.02 В 1 н/о н/о -23.4 -26.9 73 -27 -27 1001.9 955.1
12 15.02 ЮВ 8-10
{10}
н/о н/о -19.6 -22.7 76 -32 -32 опасность
обморожения
1000.2 954.1
15 15.02 В 9-10
{10}
н/о н/о -20.0 -23.0 77 -33 -33 опасность
обморожения
999.4 953.3
18 15.02 В 10-11
{11}
н/о н/о -16.7 -19.6 78 -29 -29 997.9 952.4
21 15.02 В 8
{11}
н/о н/о -14.4 -16.9 81 -25 -25 997.9 952.8
00 16.02 штиль 0 н/о н/о -16.9 -19.3 82 -17 -17 997.6 952.2
03 16.02 В 1 н/о н/о -19.2 -21.6 81 -22 -22 995.9 950.2
09 16.02 ЮЗ 3 н/о н/о -21.7 -24.4 79 -30 -30 991.0 945.0
12 16.02 штиль 0 н/о н/о -24.0 -27.0 76 -24 -24 989.4 943.1
15 16.02 СЗ 2 н/о н/о -25.3 -28.4 75 -32 -32 опасность
обморожения
989.0 942.4
18 16.02 З 1 н/о н/о -25.5 -28.7 74 -29 -29 988.7 942.1
21 16.02 СЗ 1 н/о н/о -25.3 -28.4 75 -29 -29 988.6 942.1
00 17.02 С 1 н/о н/о -24.6 -27.7 75 -28 -28 989.4 942.9
03 17.02 З 3 н/о н/о -24.4 -27.5 75 -33 -33 опасность
обморожения
990.0 943.6
06 17.02 З 2 н/о н/о -24.7 -27.7 76 -31 -31 опасность
обморожения
992.1 945.5
09 17.02 З 3 н/о н/о -24.1 -27.1 76 -33 -33 опасность
обморожения
994.4 947.8
12 17.02 З 1 н/о н/о -23.4 -26.3 77 -27 -27 996.6 950.0
15 17.02 З 1 н/о н/о -23.9 -26.8 77 -27 -27 998.3 951.5
18 17.02 З 2 н/о н/о -23.9 -26.9 76 -30 -30 999.9 953.0
21 17.02 С 1 н/о н/о -23.7 -26.7 76 -27 -27 1001.5 954.6
00 18.02 штиль 0 н/о н/о -22.1 -24.8 79 -22 -22 1002.3 955.7
03 18.02 ЮЗ 1 н/о н/о -22.6 -25.6 76 -26 -26 1003.1 956.4

 

Местоположение метеостанции Майская (Чукотка, Россия): широта 68.57 долгота 173.48 высота над уровнем моря 351 м.

В архиве по умолчанию представлена погода в Майской за последнюю неделю. Архивные данные за месяц целиком и за предыдущие месяцы, начиная с января 2011 года, Вы можете получить, выбрав интересующий диапазон дат из раскрывающегося списка и нажав кнопку "Ввод!".


*Определитесь, кто Вы:
робот инопланетянин человек

Внимание! Время в таблицах - всемирное. Для получения местного времени необходимо прибавить поправку, которая равна 12 ч.

Смотрите также архив погоды в соседних городах и на ближайших метеорологических станциях:

Погода в Паляваам-Глубокой (Чукотка, Россия) (66 км)
Погода в Комсомольской (Чукотка, Россия) (68 км)
Погода в Чауне (Чукотка, Россия) (117 км)
Погода на 21 км (Чукотка, Россия) (158 км)
Погода на Мысе Биллингс (Чукотка, Россия) (170 км)
Погода в Певеке (Чукотка, Россия) (181 км)
Погода в Валькаркае (Чукотка, Россия) (196 км)
Погода в Эньмувееме (Чукотка, Россия) (244 км)
Погода на Айон Острове (Чукотка, Россия) (267 км)
Погода в Илирнее (Чукотка, Россия) (276 км)

Пояснения к столбцам:

Ветер - указаны скорость ветра в м/с - средняя за 10 мин, порывы в срок и между сроками (в фигурных скобках) и направление, откуда дует ветер: С - северный, СВ - северо-восточный, В - восточный, ЮВ - юго-восточный, Ю - южный, ЮЗ - юго-западный, З - западный, СЗ - северо-западный.
Видимость - горизонтальная дальность видимости в метрах или километрах. При видимости от 1 до 10 км при отсутствии осадков обычно наблюдается дымка, при ухудшении видимости до 1 км и менее - туман. В сухую погоду видимость может ухудшаться дымом, пылью или мглою.
Явления - указаны атмосферные явления, наблюдавшиеся в срок или в последний час перед сроком; фигурными скобками обозначены явления, наблюдавшиеся между сроками (за 1-3 часа до срока); квадратными скобками обозначены град или гололедные отложения с указанием их диаметра в мм.
Облачность - указаны через наклонную черту общая и нижняя облачность в баллах и высота нижней границы облаков в метрах; квадратными скобками обозначены формы облаков: Ci - перистые, Cs - перисто-слоистые, Cc - перисто-кучевые, Ac - высококучевые, As - высокослоистые, Sc - слоисто-кучевые, Ns - слоисто-дождевые, Cu - кучевые, Cb - кучево-дождевые. Подробнее классификацию облаков см. в Атласе облаков (PDF).
T - Температура воздуха - температура, измеренная на высоте 2 м над землей.
Td - Температура точки росы - температура, при понижении до которой содержащийся в воздухе водяной пар достигнет насыщения.
f - Относительная влажность воздуха - влажноcть воздуха, измеренная на высоте 2 м над землей.
Te - Эффективная температура - температура, которую ощущает одетый по сезону человек в тени. Характеристика душности погоды. При расчете учитывается влияние влажности воздуха и скорости ветра на теплоощущения человека.
Tes - Эффективная температура на солнце - температура, которую ощущает человек, с поправкой на солнечный нагрев. Характеристика знойности погоды. Зависит от высоты солнца над горизонтом, облачности и скорости ветра. Ночью, в пасмурную погоду, а также при ветре 12 м/с и более поправка равна нулю.
P - Атмосферное давление - приведенное к уровню моря атмосферное давление.
Po - Атмосферное давление - измеренное на уровне метеостанции атмосферное давление.
Tmin - Минимальная температура - минимум температуры воздуха на высоте 2 м над землей.
Tmax - Максимальная температура - максимум температуры воздуха на высоте 2 м над землей.
R - Количество осадков - Количество выпавших осадков за период времени, мм. При наведении курсора мыши на число - период времени, за который выпало указанное количество осадков.
R24 - Количество осадков - Количество выпавших осадков за 24 часа, мм.
S - Снежный покров - Высота снежного покрова, см. При наведении курсора мыши на число - состояние снежного покрова и степень покрытия местности в баллах.